Regional Weather Roundup
Issued by NWS Albany, NY

Home | Current Version | Previous Version | Text Only | Print | Product List | Glossary On
Versions: 1 2 3 4 5 6 7 8 9 10 11 12 13 14 15 16 17 18 19 20 21 22 23 24 25 26 27
000
ASUS41 KALY 210610
RWRALY

NEW YORK STATE HOURLY WEATHER ROUNDUP
NATIONAL WEATHER SERVICE ALBANY NY
200 AM EDT FRI JUL 21 2017

NOTE: "FAIR" INDICATES FEW OR NO CLOUDS BELOW 12,000 FEET WITH NO
SIGNIFICANT WEATHER AND/OR NO OBSTRUCTIONS TO VISIBILITY.

NYZ032-033-038>043-046>054-057>066-NYZ062>081-082-084-210700-
EAST


CITY           SKY/WX    TMP DP  RH WIND       PRES   REMARKS
ALBANY         PTCLDY    68  61  78 W7        29.88F
GLENS FALLS    PTCLDY    59  58  96 SW3       29.86F FOG
POUGHKEEPSIE   CLEAR     69  68  96 CALM      29.88S
NEWBURGH       MOCLDY    70  70 100 W9        29.92S
MONTGOMERY     FOG       68  67  96 CALM      29.91S VSB 1/4
WHITE PLAINS   PTCLDY    75  66  73 W10       29.89R
ISLIP          PTCLDY    79  66  64 NW9       29.87R
NEW YORK CITY  MOCLDY    80  69  69 NW8       29.87S
CENTRAL PARK   CLOUDY    78  67  68 W5        29.92R
$$

NYZ005>009-017-018-044>046-055-056-210700-
CENTRAL


CITY           SKY/WX    TMP DP  RH WIND       PRES   REMARKS
FULTON         CLEAR     62  60  93 CALM      29.90F FOG
SYRACUSE       MOCLDY    71  69  93 W7        29.89F
ROME           PTCLDY    61  59  93 CALM      29.91F
ELMIRA         FOG       67  67 100 NW3       29.94F VSB 1/4
BINGHAMTON     FOG       65  65 100 W3        29.96S VSB 1/4
$$

NYZ026>034-041>043-087-210700-
NORTH


CITY           SKY/WX    TMP DP  RH WIND       PRES   REMARKS
WATERTOWN      CLEAR     62  61  96 S5        29.88F
FORT DRUM      NOT AVBL
OGDENSBURG     FAIR      60  58  91 S3        29.86S
MASSENA        CLEAR     63  57  81 SW8       29.85F
SARANAC LAKE   CLEAR     47  47 100 CALM      29.90F
PLATTSBURGH    CLEAR     65  53  65 CALM      29.82F
$$

NYZ001>004-010>016-019>021-085-210700-
WEST


CITY           SKY/WX    TMP DP  RH WIND       PRES   REMARKS
NIAGARA FALLS  CLEAR     71  67  87 SW3       29.92S FOG
BUFFALO        PTCLDY    72  71  97 SW6       29.93S
DUNKIRK        CLEAR     71  67  87 S5        29.94F
JAMESTOWN      CLEAR     66  61  82 SW6       30.00F
WELLSVILLE     MOCLDY    70  66  87 W5        30.02F
ROCHESTER      CLOUDY    68  66  93 SW3       29.91F
PENN YAN       CLOUDY    70  67  90 SW7       29.94F
$$

             KEY
       WCI = WIND CHILL INDEX
       VSB = VISIBILITY
       HX  = HEAT INDEX
$$




USA.gov is the U.S. government's official web portal to all federal, state and local government web resources and services.